Change the Weather History Date:

Friday, January 22, 2010

  Actual Average Record
Temperature  
Mean Temperature 32 °F -  
Max Temperature 33 °F 33 °F 55 °F (1964)
Min Temperature 30 °F 18 °F -16 °F (1970)
Degree Days  
Heating Degree Days 34    
Moisture  
Dew Point 28 °F    
Average Humidity 85    
Maximum Humidity 100    
Minimum Humidity 75    
Precipitation  
Precipitation 0.00 in - - ()
Sea Level Pressure  
Sea Level Pressure 29.93 in    
Wind  
Wind Speed 8 mph (NE)    
Max Wind Speed 13 mph    
Max Gust Speed -    
Visibility 7 miles    
Events      
Averages and records for this station are not official NWS values.
T = Trace of Precipitation, MM = Missing Value Source: NWS Daily Summary

Daily Weather History Graph

Daily Weather History Graph

Search for Another Location

Airport or City:

Trip Planner

Search our weather history database for the weather conditions in past years. The results will help you decide how hot, cold, wet, or windy it might be!

Date:

Astronomy

Jan. 22, 2010 Rise Set
Actual Time 8:03 AM EST 5:44 PM EST
Civil Twilight 7:33 AM EST 6:14 PM EST
Nautical Twilight 6:59 AM EST 6:49 PM EST
Astronomical Twilight 6:26 AM EST 7:22 PM EST
Moon 11:01 AM EST (1/22) 12:16 AM EST (1/22)
Length of Visible Light 10h 41m
Length of Day
9h 40m
Waxing Crescent, 43% of the Moon is Illuminated
Jan 22
Waxing Crescent
Jan 23
First Quarter
Jan 30
Full
Feb 5
Last Quarter
Feb 13
New

Hourly Weather History & Observations

Time (EST) Temp. Windchill Dew Point Humidity Pressure Visibility Wind Dir Wind Speed Gust Speed Precip Events Conditions
12:16 AM 32.0 °F 22.5 °F 24.8 °F 75% 29.81 in 10.0 mi ENE 12.7 mph - N/A   Overcast
12:55 AM 32.0 °F 22.5 °F 24.8 °F 75% 29.80 in 10.0 mi ENE 12.7 mph - N/A   Overcast
1:16 AM 32.0 °F 23.6 °F 24.8 °F 75% 29.81 in 10.0 mi ENE 10.4 mph - N/A   Overcast
1:36 AM 32.0 °F 22.5 °F 24.8 °F 75% 29.81 in 10.0 mi ENE 12.7 mph - N/A   Overcast
1:55 AM 32.0 °F 24.2 °F 24.8 °F 75% 29.81 in 10.0 mi NE 9.2 mph - N/A   Overcast
2:16 AM 32.0 °F 24.8 °F 24.8 °F 75% 29.82 in 10.0 mi NE 8.1 mph - N/A   Overcast
2:36 AM 32.0 °F 24.8 °F 24.8 °F 75% 29.82 in 10.0 mi ENE 8.1 mph - N/A   Overcast
2:55 AM 32.0 °F 25.6 °F 24.8 °F 75% 29.83 in 10.0 mi NE 6.9 mph - N/A   Overcast
3:16 AM 32.0 °F 25.6 °F 24.8 °F 75% 29.82 in 10.0 mi NE 6.9 mph - N/A   Overcast
3:36 AM 32.0 °F 25.6 °F 24.8 °F 75% 29.82 in 10.0 mi NE 6.9 mph - N/A   Overcast
3:55 AM 32.0 °F 24.8 °F 24.8 °F 75% 29.83 in 10.0 mi NE 8.1 mph - N/A   Overcast
4:16 AM 32.0 °F 25.6 °F 24.8 °F 75% 29.83 in 10.0 mi NE 6.9 mph - N/A   Overcast
4:55 AM 30.2 °F 23.4 °F 23.0 °F 75% 29.85 in 10.0 mi NNE 6.9 mph - N/A   Overcast
5:16 AM 30.2 °F 22.6 °F 23.0 °F 75% 29.86 in 10.0 mi NNE 8.1 mph - N/A   Overcast
5:36 AM 30.2 °F 23.4 °F 24.8 °F 80% 29.87 in 10.0 mi NNE 6.9 mph - N/A   Overcast
5:55 AM 30.2 °F 22.6 °F 24.8 °F 80% 29.88 in 10.0 mi NNE 8.1 mph - N/A   Overcast
6:17 AM 30.2 °F 22.6 °F 24.8 °F 80% 29.88 in 10.0 mi NNE 8.1 mph - N/A   Overcast
6:36 AM 30.2 °F 22.6 °F 24.8 °F 80% 29.88 in 10.0 mi NE 8.1 mph - N/A   Overcast
6:55 AM 30.2 °F 21.9 °F 24.8 °F 80% 29.88 in 10.0 mi NE 9.2 mph - N/A   Overcast
7:16 AM 30.2 °F 21.3 °F 26.6 °F 86% 29.89 in 10.0 mi NE 10.4 mph - N/A   Overcast
7:36 AM 30.2 °F 24.3 °F 24.8 °F 80% 29.89 in 10.0 mi NNE 5.8 mph - N/A   Overcast
7:55 AM 30.2 °F 23.4 °F 24.8 °F 80% 29.90 in 10.0 mi NNE 6.9 mph - N/A   Overcast
8:16 AM 30.2 °F 25.4 °F 26.6 °F 86% 29.91 in 10.0 mi NNE 4.6 mph - N/A   Overcast
8:36 AM 30.2 °F 24.3 °F 26.6 °F 86% 29.91 in 10.0 mi NNE 5.8 mph - N/A   Overcast
8:55 AM 30.2 °F 23.4 °F 24.8 °F 80% 29.92 in 10.0 mi NNE 6.9 mph - N/A   Overcast
9:16 AM 30.2 °F 23.4 °F 26.6 °F 86% 29.92 in 10.0 mi NE 6.9 mph - N/A   Overcast
9:36 AM 30.2 °F 22.6 °F 26.6 °F 86% 29.92 in 7.0 mi NE 8.1 mph - N/A   Overcast
9:55 AM 30.2 °F 22.6 °F 26.6 °F 86% 29.92 in 7.0 mi NE 8.1 mph - N/A   Overcast
10:16 AM 30.2 °F 21.3 °F 26.6 °F 86% 29.93 in 7.0 mi NE 10.4 mph - N/A   Overcast
10:36 AM 30.2 °F 23.4 °F 26.6 °F 86% 29.93 in 7.0 mi NE 6.9 mph - N/A   Overcast
10:55 AM 30.2 °F 22.6 °F 26.6 °F 86% 29.94 in 7.0 mi NNE 8.1 mph - N/A   Overcast
11:16 AM 32.0 °F 24.2 °F 28.4 °F 87% 29.94 in 7.0 mi NE 9.2 mph - N/A   Overcast
11:36 AM 32.0 °F 24.8 °F 28.4 °F 87% 29.93 in 5.0 mi ENE 8.1 mph - N/A   Overcast
11:55 AM 32.0 °F 24.8 °F 28.4 °F 87% 29.93 in 5.0 mi NE 8.1 mph - N/A   Overcast
12:16 PM 32.0 °F 25.6 °F 28.4 °F 87% 29.93 in 5.0 mi NE 6.9 mph - N/A   Haze
12:36 PM 32.0 °F 24.8 °F 28.4 °F 87% 29.93 in 5.0 mi NE 8.1 mph - N/A   Overcast
12:55 PM 32.0 °F 25.6 °F 28.4 °F 87% 29.94 in 5.0 mi NE 6.9 mph - N/A   Overcast
1:16 PM 32.0 °F 28.7 °F 28.4 °F 87% 29.95 in 5.0 mi NNE 3.5 mph - N/A   Haze
1:36 PM 32.0 °F 26.4 °F 28.4 °F 87% 29.95 in 5.0 mi NNE 5.8 mph - N/A   Haze
1:55 PM 32.0 °F 26.4 °F 30.2 °F 93% 29.94 in 5.0 mi NE 5.8 mph - N/A   Overcast
2:16 PM 33.8 °F 27.0 °F 30.2 °F 87% 29.95 in 5.0 mi ENE 8.1 mph - N/A   Haze
2:36 PM 33.8 °F 27.0 °F 30.2 °F 87% 29.94 in 5.0 mi NE 8.1 mph - N/A   Overcast
2:55 PM 33.8 °F 28.6 °F 30.2 °F 87% 29.94 in 5.0 mi East 5.8 mph - N/A   Overcast
3:16 PM 33.8 °F 26.4 °F 30.2 °F 87% 29.94 in 5.0 mi ENE 9.2 mph - N/A   Overcast
3:36 PM 33.8 °F 25.8 °F 30.2 °F 87% 29.94 in 5.0 mi ENE 10.4 mph - N/A   Overcast
3:55 PM 33.8 °F 27.7 °F 30.2 °F 87% 29.95 in 7.0 mi ENE 6.9 mph - N/A   Overcast
4:16 PM 33.8 °F 29.6 °F 30.2 °F 87% 29.97 in 7.0 mi East 4.6 mph - N/A   Overcast
4:36 PM 33.8 °F 28.6 °F 30.2 °F 87% 29.97 in 5.0 mi ENE 5.8 mph - N/A   Haze
4:55 PM 33.8 °F 28.6 °F 30.2 °F 87% 29.98 in 5.0 mi NE 5.8 mph - N/A   Haze
5:16 PM 33.8 °F 29.6 °F 32.0 °F 93% 29.99 in 5.0 mi NE 4.6 mph - N/A   Overcast
5:36 PM 33.8 °F 29.6 °F 32.0 °F 93% 30.00 in 5.0 mi NE 4.6 mph - N/A   Overcast
5:55 PM 33.8 °F 29.6 °F 32.0 °F 93% 30.01 in 5.0 mi NE 4.6 mph - N/A   Overcast
6:16 PM 33.8 °F 30.8 °F 32.0 °F 93% 30.02 in 5.0 mi NE 3.5 mph - N/A   Overcast
6:36 PM 33.8 °F - 32.0 °F 93% 30.03 in 5.0 mi Calm Calm - N/A   Overcast
6:55 PM 33.8 °F - 32.0 °F 93% 30.04 in 5.0 mi Calm Calm - N/A   Overcast
7:16 PM 33.8 °F 30.8 °F 32.0 °F 93% 30.04 in 5.0 mi NE 3.5 mph - N/A   Overcast
7:36 PM 33.8 °F 27.7 °F 32.0 °F 93% 30.03 in 5.0 mi NE 6.9 mph - N/A   Overcast
7:55 PM 33.8 °F 30.8 °F 32.0 °F 93% 30.04 in 5.0 mi NE 3.5 mph - N/A   Overcast
8:17 PM 32.0 °F 26.4 °F 32.0 °F 100% 30.03 in 5.0 mi NE 5.8 mph - N/A   Overcast
8:37 PM 33.8 °F 29.6 °F 32.0 °F 93% 30.04 in 5.0 mi NE 4.6 mph - N/A   Overcast
8:55 PM 32.0 °F 25.6 °F 32.0 °F 100% 30.04 in 4.0 mi ENE 6.9 mph - N/A   Overcast
9:16 PM 33.8 °F 29.6 °F 32.0 °F 93% 30.05 in 5.0 mi ENE 4.6 mph - N/A   Overcast
9:36 PM 33.8 °F 27.7 °F 32.0 °F 93% 30.04 in 5.0 mi ENE 6.9 mph - N/A   Overcast
9:55 PM 33.8 °F 28.6 °F 32.0 °F 93% 30.04 in 5.0 mi East 5.8 mph - N/A   Overcast
10:16 PM 33.8 °F 26.4 °F 32.0 °F 93% 30.03 in 5.0 mi East 9.2 mph - N/A   Overcast
10:36 PM 33.8 °F 27.0 °F 32.0 °F 93% 30.02 in 5.0 mi East 8.1 mph - N/A   Overcast
10:55 PM 33.8 °F 27.7 °F 32.0 °F 93% 30.01 in 5.0 mi ENE 6.9 mph - N/A   Overcast
11:16 PM 32.0 °F 26.4 °F 32.0 °F 100% 30.02 in 5.0 mi ENE 5.8 mph - N/A   Overcast
11:36 PM 32.0 °F 27.5 °F 32.0 °F 100% 30.03 in 5.0 mi ENE 4.6 mph - N/A   Overcast
11:55 PM 32.0 °F 28.7 °F 32.0 °F 100% 30.03 in 5.0 mi ENE 3.5 mph - N/A   Overcast